NOAA 16 DEB, 42347

Orbit data source: Space-Track

NOAA 16 DEB, 42347 is space debris in SSO originally from a launch on Thu, 21 Sep 2000 UTC launched from the Air Force Western Test Range (AFWTR). Debris objects in space refer to the collection of defunct objects orbiting the Earth. Examples of debris include non-operational satellites, rocket bodies, and fragments generated from explosions, collisions, or faulty payload assembly.

Loading next visibility...
Identifier
42347, 2000-055QP
Orbit
SSO
Country
Flag of USUS
Related business
Manufacturer
Unknown
Mission
Spacecraft
Bus & Motor
Unknown
Mass
Unknown
Launch date (UTC)
2000-09-21 (25 years ago)
Launch vehicle
Unknown
Launch site
Air Force Western Test Range (AFWTR)
Object type
Payload
Rocket body
Debris
Shape & HBR
Unknown shape, 0.1 m
Radar Cross Section
Small (<0.1 m²)

Expand to show TLE details & history
Last TLE update: 19 hours ago

TLE from 19 hours ago
0 NOAA 16 DEB
1 42347U 00055QP  25288.96084788  .00010432  00000-0  27230-2 0  9991
2 42347  98.9692 106.1892 0037058 129.9528 230.4929 14.49232684507106
Epoch: 2025-10-15T23:03Z
TLE epoch observation values (Epoch: 2025-10-15T23:03:37.256Z)
Latitude
-0.00003°
Longitude
95.55655°
Altitude
747.916 km
Speed
7.472 km/s
True Right ascension
07h 04m 45s
True Declination
0° 00' 00"
Sunlit
Object was in daylight at epoch
Visualization orbit readout
Latitude
Unknown
Longitude
Unknown
Altitude
Unknown
Speed
Unknown
Apparent Right ascension
Unknown
Apparent Declination
Unknown
Sunlit
N/A
Visualization observer readout
Local Sidereal Time
12:20:11
Azimuth
Unknown
Elevation
Unknown
Doppler factor
Unknown
Orbital elements
Apogee altitude
751.612 km
Perigee altitude
698.964 km
Semi-major axis
7,103.425 km
Eccentricity
0.00371
Inclination
98.9692°
RAAN
106.1892°
Arg. of periapsis
129.9528°
True anomaly
230.16623°
Mean anomaly
230.4929°
Eccentric anomaly
230.32947°
Mean motion
3.62528 °/min
Orbital period
99.3 mins
BSTAR
0.002723
Loading maneuver chart data...
Computing Atmospheric mass density...

Documentation

Showing up to 5 results
|